Year,Month,Day,Hour,Minute,Value (Times are PST for temperature in C)
2010,03,28,00,00,10.40
2010,03,28,00,01,10.40
2010,03,28,00,02,10.40
2010,03,28,00,03,10.40
2010,03,28,00,04,10.40
2010,03,28,00,05,10.50
2010,03,28,00,06,10.50
2010,03,28,00,07,10.50
2010,03,28,00,08,10.60
2010,03,28,00,09,10.60
2010,03,28,00,10,10.60
2010,03,28,00,11,10.60
2010,03,28,00,12,10.60
2010,03,28,00,13,10.70
2010,03,28,00,14,10.70
2010,03,28,00,15,10.70
2010,03,28,00,16,10.80
2010,03,28,00,17,10.80
2010,03,28,00,18,10.80
2010,03,28,00,19,10.90
2010,03,28,00,20,10.90
2010,03,28,00,21,10.90
2010,03,28,00,22,11.00
2010,03,28,00,23,11.00
2010,03,28,00,24,11.10
2010,03,28,00,25,11.10
2010,03,28,00,26,11.20
2010,03,28,00,27,11.20
2010,03,28,00,28,11.30
2010,03,28,00,29,11.30
2010,03,28,00,30,11.30
2010,03,28,00,31,11.30
2010,03,28,00,32,11.30
2010,03,28,00,33,11.30
2010,03,28,00,34,11.20
2010,03,28,00,35,11.20
2010,03,28,00,36,11.10
2010,03,28,00,37,11.00
2010,03,28,00,38,11.00
2010,03,28,00,39,10.90
2010,03,28,00,40,10.80
2010,03,28,00,41,10.70
2010,03,28,00,42,10.60
2010,03,28,00,43,10.50
2010,03,28,00,44,10.30
2010,03,28,00,45,10.30
2010,03,28,00,46,10.20
2010,03,28,00,47,10.10
2010,03,28,00,48,10.00
2010,03,28,00,49,10.00
2010,03,28,00,50,9.90
2010,03,28,00,51,9.90
2010,03,28,00,52,9.90
2010,03,28,00,53,9.90
2010,03,28,00,54,9.80
2010,03,28,00,55,9.80
2010,03,28,00,56,9.80
2010,03,28,00,57,9.80
2010,03,28,00,58,9.70
2010,03,28,00,59,9.70
2010,03,28,01,00,9.60
2010,03,28,01,01,9.60
2010,03,28,01,02,9.50
2010,03,28,01,03,9.40
2010,03,28,01,04,9.40
2010,03,28,01,05,9.30
2010,03,28,01,06,9.20
2010,03,28,01,07,9.20
2010,03,28,01,08,9.20
2010,03,28,01,09,9.20
2010,03,28,01,10,9.20
2010,03,28,01,11,9.20
2010,03,28,01,12,9.10
2010,03,28,01,13,9.10
2010,03,28,01,14,9.00
2010,03,28,01,15,8.90
2010,03,28,01,16,8.90
2010,03,28,01,17,8.80
2010,03,28,01,18,8.80
2010,03,28,01,19,8.70
2010,03,28,01,20,8.70
2010,03,28,01,21,8.70
2010,03,28,01,22,8.70
2010,03,28,01,23,8.60
2010,03,28,01,24,8.60
2010,03,28,01,25,8.60
2010,03,28,01,26,8.50
2010,03,28,01,27,8.50
2010,03,28,01,28,8.40
2010,03,28,01,29,8.40
2010,03,28,01,30,8.40
2010,03,28,01,31,8.40
2010,03,28,01,32,8.40
2010,03,28,01,33,8.30
2010,03,28,01,34,8.30
2010,03,28,01,35,8.30
2010,03,28,01,36,8.30
2010,03,28,01,37,8.30
2010,03,28,01,38,8.20
2010,03,28,01,39,8.20
2010,03,28,01,40,8.20
2010,03,28,01,41,8.20
2010,03,28,01,42,8.20
2010,03,28,01,43,8.20
2010,03,28,01,44,8.20
2010,03,28,01,45,8.20
2010,03,28,01,46,8.20
2010,03,28,01,47,8.20
2010,03,28,01,48,8.10
2010,03,28,01,49,8.10
2010,03,28,01,50,8.10
2010,03,28,01,51,8.00
2010,03,28,01,52,8.00
2010,03,28,01,53,8.00
2010,03,28,01,54,7.90
2010,03,28,01,55,7.90
2010,03,28,01,56,7.90
2010,03,28,01,57,7.80
2010,03,28,01,58,7.80
2010,03,28,01,59,7.80
2010,03,28,02,00,7.80
2010,03,28,02,01,7.80
2010,03,28,02,02,7.80
2010,03,28,02,03,7.80
2010,03,28,02,04,7.70
2010,03,28,02,05,7.70
2010,03,28,02,06,7.70
2010,03,28,02,07,7.70
2010,03,28,02,08,7.60
2010,03,28,02,09,7.60
2010,03,28,02,10,7.60
2010,03,28,02,11,7.60
2010,03,28,02,12,7.60
2010,03,28,02,13,7.50
2010,03,28,02,14,7.50
2010,03,28,02,15,7.40
2010,03,28,02,16,7.40
2010,03,28,02,17,7.40
2010,03,28,02,18,7.40
2010,03,28,02,19,7.40
2010,03,28,02,20,7.40
2010,03,28,02,21,7.40
2010,03,28,02,22,7.40
2010,03,28,02,23,7.40
2010,03,28,02,24,7.30
2010,03,28,02,25,7.30
2010,03,28,02,26,7.30
2010,03,28,02,27,7.30
2010,03,28,02,28,7.30
2010,03,28,02,29,7.30
2010,03,28,02,30,7.30
2010,03,28,02,31,7.30
2010,03,28,02,32,7.20
2010,03,28,02,33,7.20
2010,03,28,02,34,7.20
2010,03,28,02,35,7.20
2010,03,28,02,36,7.20
2010,03,28,02,37,7.20
2010,03,28,02,38,7.20
2010,03,28,02,39,7.20
2010,03,28,02,40,7.20
2010,03,28,02,41,7.20
2010,03,28,02,42,7.20
2010,03,28,02,43,7.20
2010,03,28,02,44,7.20
2010,03,28,02,45,7.20
2010,03,28,02,46,7.20
2010,03,28,02,47,7.20
2010,03,28,02,48,7.20
2010,03,28,02,49,7.20
2010,03,28,02,50,7.20
2010,03,28,02,51,7.20
2010,03,28,02,52,7.20
2010,03,28,02,53,7.20
2010,03,28,02,54,7.10
2010,03,28,02,55,7.10
2010,03,28,02,56,7.10
2010,03,28,02,57,7.20
2010,03,28,02,58,7.20
2010,03,28,02,59,7.20
2010,03,28,03,00,7.20
2010,03,28,03,01,7.20
2010,03,28,03,02,7.20
2010,03,28,03,03,7.20
2010,03,28,03,04,7.20
2010,03,28,03,05,7.20
2010,03,28,03,06,7.20
2010,03,28,03,07,7.20
2010,03,28,03,08,7.20
2010,03,28,03,09,7.20
2010,03,28,03,10,7.20
2010,03,28,03,11,7.20
2010,03,28,03,12,7.20
2010,03,28,03,13,7.20
2010,03,28,03,14,7.10
2010,03,28,03,15,7.10
2010,03,28,03,16,7.00
2010,03,28,03,17,7.00
2010,03,28,03,18,7.00
2010,03,28,03,19,6.90
2010,03,28,03,20,6.90
2010,03,28,03,21,6.90
2010,03,28,03,22,6.90
2010,03,28,03,23,6.80
2010,03,28,03,24,6.80
2010,03,28,03,25,6.80
2010,03,28,03,26,6.80
2010,03,28,03,27,6.70
2010,03,28,03,28,6.70
2010,03,28,03,29,6.70
2010,03,28,03,30,6.70
2010,03,28,03,31,6.60
2010,03,28,03,32,6.60
2010,03,28,03,33,6.60
2010,03,28,03,34,6.60
2010,03,28,03,35,6.60
2010,03,28,03,36,6.60
2010,03,28,03,37,6.60
2010,03,28,03,38,6.70
2010,03,28,03,39,6.60
2010,03,28,03,40,6.60
2010,03,28,03,41,6.60
2010,03,28,03,42,6.60
2010,03,28,03,43,6.50
2010,03,28,03,44,6.50
2010,03,28,03,45,6.40
2010,03,28,03,46,6.40
2010,03,28,03,47,6.40
2010,03,28,03,48,6.40
2010,03,28,03,49,6.40
2010,03,28,03,50,6.40
2010,03,28,03,51,6.40
2010,03,28,03,52,6.40
2010,03,28,03,53,6.40
2010,03,28,03,54,6.40
2010,03,28,03,55,6.40
2010,03,28,03,56,6.50
2010,03,28,03,57,6.50
2010,03,28,03,58,6.50
2010,03,28,03,59,6.50
2010,03,28,04,00,6.40
2010,03,28,04,01,6.30
2010,03,28,04,02,6.30
2010,03,28,04,03,6.30
2010,03,28,04,04,6.30
2010,03,28,04,05,6.30
2010,03,28,04,06,6.30
2010,03,28,04,07,6.30
2010,03,28,04,08,6.30
2010,03,28,04,09,6.40
2010,03,28,04,10,6.50
2010,03,28,04,11,6.60
2010,03,28,04,12,6.60
2010,03,28,04,13,6.60
2010,03,28,04,14,6.50
2010,03,28,04,15,6.50
2010,03,28,04,16,6.50
2010,03,28,04,17,6.50
2010,03,28,04,18,6.50
2010,03,28,04,19,6.40
2010,03,28,04,20,6.40
2010,03,28,04,21,6.30
2010,03,28,04,22,6.30
2010,03,28,04,23,6.20
2010,03,28,04,24,6.10
2010,03,28,04,25,6.00
2010,03,28,04,26,6.00
2010,03,28,04,27,5.90
2010,03,28,04,28,5.90
2010,03,28,04,29,5.90
2010,03,28,04,30,5.90
2010,03,28,04,31,5.90
2010,03,28,04,32,5.90
2010,03,28,04,33,5.90
2010,03,28,04,34,5.80
2010,03,28,04,35,5.70
2010,03,28,04,36,5.70
2010,03,28,04,37,5.70
2010,03,28,04,38,5.60
2010,03,28,04,39,5.60
2010,03,28,04,40,5.60
2010,03,28,04,41,5.60
2010,03,28,04,42,5.50
2010,03,28,04,43,5.40
2010,03,28,04,44,5.40
2010,03,28,04,45,5.30
2010,03,28,04,46,5.30
2010,03,28,04,47,5.30
2010,03,28,04,48,5.20
2010,03,28,04,49,5.10
2010,03,28,04,50,5.10
2010,03,28,04,51,5.10
2010,03,28,04,52,5.00
2010,03,28,04,53,4.90
2010,03,28,04,54,4.90
2010,03,28,04,55,4.90
2010,03,28,04,56,4.90
2010,03,28,04,57,5.00
2010,03,28,04,58,5.10
2010,03,28,04,59,5.10
2010,03,28,05,00,5.20
2010,03,28,05,01,5.40
2010,03,28,05,02,5.50
2010,03,28,05,03,5.60
2010,03,28,05,04,5.70
2010,03,28,05,05,5.70
2010,03,28,05,06,5.80
2010,03,28,05,07,5.90
2010,03,28,05,08,6.00
2010,03,28,05,09,6.10
2010,03,28,05,10,6.20
2010,03,28,05,11,6.20
2010,03,28,05,12,6.30
2010,03,28,05,13,6.30
2010,03,28,05,14,6.30
2010,03,28,05,15,6.30
2010,03,28,05,16,6.30
2010,03,28,05,17,6.30
2010,03,28,05,18,6.40
2010,03,28,05,19,6.40
2010,03,28,05,20,6.40
2010,03,28,05,21,6.40
2010,03,28,05,22,6.40
2010,03,28,05,23,6.40
2010,03,28,05,24,6.30
2010,03,28,05,25,6.30
2010,03,28,05,26,6.30
2010,03,28,05,27,6.30
2010,03,28,05,28,6.30
2010,03,28,05,29,6.30
2010,03,28,05,30,6.20
2010,03,28,05,31,6.20
2010,03,28,05,32,6.20
2010,03,28,05,33,6.20
2010,03,28,05,34,6.20
2010,03,28,05,35,6.10
2010,03,28,05,36,6.10
2010,03,28,05,37,6.10
2010,03,28,05,38,6.10
2010,03,28,05,39,6.10
2010,03,28,05,40,6.20
2010,03,28,05,41,6.20
2010,03,28,05,42,6.20
2010,03,28,05,43,6.20
2010,03,28,05,44,6.20
2010,03,28,05,45,6.20
2010,03,28,05,46,6.20
2010,03,28,05,47,6.20
2010,03,28,05,48,6.20
2010,03,28,05,49,6.20
2010,03,28,05,50,6.20
2010,03,28,05,51,6.20
2010,03,28,05,52,6.20
2010,03,28,05,53,6.20
2010,03,28,05,54,6.20
2010,03,28,05,55,6.20
2010,03,28,05,56,6.20
2010,03,28,05,57,6.20
2010,03,28,05,58,6.20
2010,03,28,05,59,6.20
2010,03,28,06,00,6.20
2010,03,28,06,01,6.20
2010,03,28,06,02,6.20
2010,03,28,06,03,6.20
2010,03,28,06,04,6.20
2010,03,28,06,05,6.20
2010,03,28,06,06,6.30
2010,03,28,06,07,6.30
2010,03,28,06,08,6.30
2010,03,28,06,09,6.20
2010,03,28,06,10,6.30
2010,03,28,06,11,6.30
2010,03,28,06,12,6.30
2010,03,28,06,13,6.30
2010,03,28,06,14,6.30
2010,03,28,06,15,6.30
2010,03,28,06,16,6.20
2010,03,28,06,17,6.20
2010,03,28,06,18,6.20
2010,03,28,06,19,6.30
2010,03,28,06,20,6.30
2010,03,28,06,21,6.30
2010,03,28,06,22,6.30
2010,03,28,06,23,6.30
2010,03,28,06,24,6.30
2010,03,28,06,25,6.30
2010,03,28,06,26,6.30
2010,03,28,06,27,6.30
2010,03,28,06,28,6.30
2010,03,28,06,29,6.30
2010,03,28,06,30,6.30
2010,03,28,06,31,6.30
2010,03,28,06,32,6.30
2010,03,28,06,33,6.30
2010,03,28,06,34,6.30
2010,03,28,06,35,6.30
2010,03,28,06,36,6.30
2010,03,28,06,37,6.30
2010,03,28,06,38,6.30
2010,03,28,06,39,6.30
2010,03,28,06,40,6.30
2010,03,28,06,41,6.30
2010,03,28,06,42,6.30
2010,03,28,06,43,6.30
2010,03,28,06,44,6.30
2010,03,28,06,45,6.30
2010,03,28,06,46,6.30
2010,03,28,06,47,6.30
2010,03,28,06,48,6.30
2010,03,28,06,49,6.30
2010,03,28,06,50,6.20
2010,03,28,06,51,6.20
2010,03,28,06,52,6.20
2010,03,28,06,53,6.20
2010,03,28,06,54,6.10
2010,03,28,06,55,6.10
2010,03,28,06,56,6.00
2010,03,28,06,57,6.00
2010,03,28,06,58,5.90
2010,03,28,06,59,6.00
2010,03,28,07,00,6.00
2010,03,28,07,01,6.00
2010,03,28,07,02,6.00
2010,03,28,07,03,6.00
2010,03,28,07,04,5.90
2010,03,28,07,05,6.00
2010,03,28,07,06,6.00
2010,03,28,07,07,6.00
2010,03,28,07,08,6.00
2010,03,28,07,09,6.10
2010,03,28,07,10,6.10
2010,03,28,07,11,6.10
2010,03,28,07,12,6.10
2010,03,28,07,13,6.10
2010,03,28,07,14,6.10
2010,03,28,07,15,6.20
2010,03,28,07,16,6.20
2010,03,28,07,17,6.20
2010,03,28,07,18,6.20
2010,03,28,07,19,6.30
2010,03,28,07,20,6.30
2010,03,28,07,21,6.30
2010,03,28,07,22,6.30
2010,03,28,07,23,6.30
2010,03,28,07,24,6.30
2010,03,28,07,25,6.30
2010,03,28,07,26,6.30
2010,03,28,07,27,6.30
2010,03,28,07,28,6.30
2010,03,28,07,29,6.30
2010,03,28,07,30,6.30
2010,03,28,07,31,6.30
2010,03,28,07,32,6.30
2010,03,28,07,33,6.30
2010,03,28,07,34,6.30
2010,03,28,07,35,6.30
2010,03,28,07,36,6.30
2010,03,28,07,37,6.30
2010,03,28,07,38,6.30
2010,03,28,07,39,6.30
2010,03,28,07,40,6.30
2010,03,28,07,41,6.40
2010,03,28,07,42,6.40
2010,03,28,07,43,6.50
2010,03,28,07,44,6.50
2010,03,28,07,45,6.50
2010,03,28,07,46,6.50
2010,03,28,07,47,6.60
2010,03,28,07,48,6.60
2010,03,28,07,49,6.60
2010,03,28,07,50,6.50
2010,03,28,07,51,6.50
2010,03,28,07,52,6.50
2010,03,28,07,53,6.50
2010,03,28,07,54,6.50
2010,03,28,07,55,6.50
2010,03,28,07,56,6.50
2010,03,28,07,57,6.50
2010,03,28,07,58,6.50
2010,03,28,07,59,6.60
2010,03,28,08,00,6.60
2010,03,28,08,01,6.60
2010,03,28,08,02,6.60
2010,03,28,08,03,6.60
2010,03,28,08,04,6.50
2010,03,28,08,05,6.50
2010,03,28,08,06,6.50
2010,03,28,08,07,6.50
2010,03,28,08,08,6.40
2010,03,28,08,09,6.40
2010,03,28,08,10,6.50
2010,03,28,08,11,6.50
2010,03,28,08,12,6.50
2010,03,28,08,13,6.50
2010,03,28,08,14,6.50
2010,03,28,08,15,6.50
2010,03,28,08,16,6.60
2010,03,28,08,17,6.60
2010,03,28,08,18,6.60
2010,03,28,08,19,6.60
2010,03,28,08,20,6.60
2010,03,28,08,21,6.50
2010,03,28,08,22,6.50
2010,03,28,08,23,6.40
2010,03,28,08,24,6.40
2010,03,28,08,25,6.40
2010,03,28,08,26,6.40
2010,03,28,08,27,6.40
2010,03,28,08,28,6.40
2010,03,28,08,29,6.40
2010,03,28,08,30,6.30
2010,03,28,08,31,6.30
2010,03,28,08,32,6.30
2010,03,28,08,33,6.30
2010,03,28,08,34,6.30
2010,03,28,08,35,6.30
2010,03,28,08,36,6.40
2010,03,28,08,37,6.40
2010,03,28,08,38,6.40
2010,03,28,08,39,6.50
2010,03,28,08,40,6.50
2010,03,28,08,41,6.50
2010,03,28,08,42,6.60
2010,03,28,08,43,6.60
2010,03,28,08,44,6.70
2010,03,28,08,45,6.70
2010,03,28,08,46,6.80
2010,03,28,08,47,6.80
2010,03,28,08,48,6.90
2010,03,28,08,49,7.00
2010,03,28,08,50,7.00
2010,03,28,08,51,7.10
2010,03,28,08,52,7.20
2010,03,28,08,53,7.20
2010,03,28,08,54,7.30
2010,03,28,08,55,7.40
2010,03,28,08,56,7.50
2010,03,28,08,57,7.50
2010,03,28,08,58,7.60
2010,03,28,08,59,7.70
2010,03,28,09,00,7.70
2010,03,28,09,01,7.80
2010,03,28,09,02,7.80
2010,03,28,09,03,7.90
2010,03,28,09,04,8.00
2010,03,28,09,05,8.00
2010,03,28,09,06,8.10
2010,03,28,09,07,8.20
2010,03,28,09,08,8.30
2010,03,28,09,09,8.30
2010,03,28,09,10,8.30
2010,03,28,09,11,8.30
2010,03,28,09,12,8.30
2010,03,28,09,13,8.20
2010,03,28,09,14,8.20
2010,03,28,09,15,8.20
2010,03,28,09,16,8.20
2010,03,28,09,17,8.10
2010,03,28,09,18,8.10
2010,03,28,09,19,8.10
2010,03,28,09,20,8.00
2010,03,28,09,21,8.00
2010,03,28,09,22,8.00
2010,03,28,09,23,8.00
2010,03,28,09,24,8.10
2010,03,28,09,25,8.20
2010,03,28,09,26,8.30
2010,03,28,09,27,8.30
2010,03,28,09,28,8.40
2010,03,28,09,29,8.50
2010,03,28,09,30,8.60
2010,03,28,09,31,8.60
2010,03,28,09,32,8.70
2010,03,28,09,33,8.80
2010,03,28,09,34,8.80
2010,03,28,09,35,8.80
2010,03,28,09,36,8.80
2010,03,28,09,37,8.90
2010,03,28,09,38,8.90
2010,03,28,09,39,9.00
2010,03,28,09,40,9.00
2010,03,28,09,41,9.10
2010,03,28,09,42,9.20
2010,03,28,09,43,9.20
2010,03,28,09,44,9.30
2010,03,28,09,45,9.40
2010,03,28,09,46,9.40
2010,03,28,09,47,9.50
2010,03,28,09,48,9.60
2010,03,28,09,49,9.70
2010,03,28,09,50,9.70
2010,03,28,09,51,9.70
2010,03,28,09,52,9.70
2010,03,28,09,53,9.60
2010,03,28,09,54,9.60
2010,03,28,09,55,9.50
2010,03,28,09,56,9.40
2010,03,28,09,57,9.30
2010,03,28,09,58,9.30
2010,03,28,09,59,9.20
2010,03,28,10,00,9.20
2010,03,28,10,01,9.10
2010,03,28,10,02,9.10
2010,03,28,10,03,9.00
2010,03,28,10,04,9.00
2010,03,28,10,05,8.90
2010,03,28,10,06,8.90
2010,03,28,10,07,8.90
2010,03,28,10,08,8.90
2010,03,28,10,09,8.90
2010,03,28,10,10,9.00
2010,03,28,10,11,9.00
2010,03,28,10,12,9.10
2010,03,28,10,13,9.10
2010,03,28,10,14,9.10
2010,03,28,10,15,9.20
2010,03,28,10,16,9.20
2010,03,28,10,17,9.20
2010,03,28,10,18,9.20
2010,03,28,10,19,9.20
2010,03,28,10,20,9.20
2010,03,28,10,21,9.20
2010,03,28,10,22,9.20
2010,03,28,10,23,9.20
2010,03,28,10,24,9.20
2010,03,28,10,25,9.20
2010,03,28,10,26,9.30
2010,03,28,10,27,9.30
2010,03,28,10,28,9.30
2010,03,28,10,29,9.30
2010,03,28,10,30,9.30
2010,03,28,10,31,9.20
2010,03,28,10,32,9.20
2010,03,28,10,33,9.10
2010,03,28,10,34,9.10
2010,03,28,10,35,9.10
2010,03,28,10,36,9.10
2010,03,28,10,37,9.10
2010,03,28,10,38,9.10
2010,03,28,10,39,9.20
2010,03,28,10,40,9.20
2010,03,28,10,41,9.30
2010,03,28,10,42,9.40
2010,03,28,10,43,9.50
2010,03,28,10,44,9.60
2010,03,28,10,45,9.70
2010,03,28,10,46,9.70
2010,03,28,10,47,9.80
2010,03,28,10,48,9.90
2010,03,28,10,49,10.00
2010,03,28,10,50,10.00
2010,03,28,10,51,10.10
2010,03,28,10,52,10.20
2010,03,28,10,53,10.20
2010,03,28,10,54,10.30
2010,03,28,10,55,10.40
2010,03,28,10,56,10.50
2010,03,28,10,57,10.60
2010,03,28,10,58,10.70
2010,03,28,10,59,10.70
2010,03,28,11,00,10.80
2010,03,28,11,01,10.90
2010,03,28,11,02,10.90
2010,03,28,11,03,10.80
2010,03,28,11,04,10.80
2010,03,28,11,05,10.70
2010,03,28,11,06,10.70
2010,03,28,11,07,10.70
2010,03,28,11,08,10.70
2010,03,28,11,09,10.70
2010,03,28,11,10,10.70
2010,03,28,11,11,10.60
2010,03,28,11,12,10.60
2010,03,28,11,13,10.50
2010,03,28,11,14,10.50
2010,03,28,11,15,10.60
2010,03,28,11,16,10.60
2010,03,28,11,17,10.70
2010,03,28,11,18,10.80
2010,03,28,11,19,11.00
2010,03,28,11,20,11.10
2010,03,28,11,21,11.20
2010,03,28,11,22,11.30
2010,03,28,11,23,11.40
2010,03,28,11,24,11.60
2010,03,28,11,25,11.70
2010,03,28,11,26,11.80
2010,03,28,11,27,11.80
2010,03,28,11,28,11.90
2010,03,28,11,29,12.00
2010,03,28,11,30,12.10
2010,03,28,11,31,12.20
2010,03,28,11,32,12.40
2010,03,28,11,33,12.50
2010,03,28,11,34,12.50
2010,03,28,11,35,12.70
2010,03,28,11,36,12.80
2010,03,28,11,37,12.90
2010,03,28,11,38,12.80
2010,03,28,11,39,12.70
2010,03,28,11,40,12.60
2010,03,28,11,41,12.50
2010,03,28,11,42,12.40
2010,03,28,11,43,12.40
2010,03,28,11,44,12.40
2010,03,28,11,45,12.30
2010,03,28,11,46,12.30
2010,03,28,11,47,12.10
2010,03,28,11,48,11.90
2010,03,28,11,49,11.70
2010,03,28,11,50,11.60
2010,03,28,11,51,11.60
2010,03,28,11,52,11.60
2010,03,28,11,53,11.60
2010,03,28,11,54,11.60
2010,03,28,11,55,11.60
2010,03,28,11,56,11.70
2010,03,28,11,57,11.80
2010,03,28,11,58,11.90
2010,03,28,11,59,11.90
2010,03,28,12,00,11.90
2010,03,28,12,01,11.90
2010,03,28,12,02,11.90
2010,03,28,12,03,11.90
2010,03,28,12,04,11.90
2010,03,28,12,05,11.90
2010,03,28,12,06,11.90
2010,03,28,12,07,11.80
2010,03,28,12,08,11.80
2010,03,28,12,09,11.80
2010,03,28,12,10,11.80
2010,03,28,12,11,11.70
2010,03,28,12,12,11.60
2010,03,28,12,13,11.50
2010,03,28,12,14,11.40
2010,03,28,12,15,11.40
2010,03,28,12,16,11.30
2010,03,28,12,17,11.30
2010,03,28,12,18,11.20
2010,03,28,12,19,11.20
2010,03,28,12,20,11.10
2010,03,28,12,21,11.10
2010,03,28,12,22,11.10
2010,03,28,12,23,11.10
2010,03,28,12,24,11.10
2010,03,28,12,25,11.10
2010,03,28,12,26,11.10
2010,03,28,12,27,11.10
2010,03,28,12,28,11.10
2010,03,28,12,29,11.10
2010,03,28,12,30,11.10
2010,03,28,12,31,11.10
2010,03,28,12,32,11.00
2010,03,28,12,33,10.90
2010,03,28,12,34,10.80
2010,03,28,12,35,10.70
2010,03,28,12,36,10.70
2010,03,28,12,37,10.70
2010,03,28,12,38,10.60
2010,03,28,12,39,10.60
2010,03,28,12,40,10.70
2010,03,28,12,41,10.70
2010,03,28,12,42,10.70
2010,03,28,12,43,10.70
2010,03,28,12,44,10.80
2010,03,28,12,45,10.80
2010,03,28,12,46,10.80
2010,03,28,12,47,10.80
2010,03,28,12,48,10.80
2010,03,28,12,49,10.80
2010,03,28,12,50,10.80
2010,03,28,12,51,10.80
2010,03,28,12,52,10.80
2010,03,28,12,53,10.80
2010,03,28,12,54,10.80
2010,03,28,12,55,10.70
2010,03,28,12,56,10.60
2010,03,28,12,57,10.60
2010,03,28,12,58,10.60
2010,03,28,12,59,10.60
2010,03,28,13,00,10.50
2010,03,28,13,01,10.50
2010,03,28,13,02,10.40
2010,03,28,13,03,10.40
2010,03,28,13,04,10.30
2010,03,28,13,05,10.30
2010,03,28,13,06,10.30
2010,03,28,13,07,10.30
2010,03,28,13,08,10.20
2010,03,28,13,09,10.20
2010,03,28,13,10,10.30
2010,03,28,13,11,10.30
2010,03,28,13,12,10.40
2010,03,28,13,13,10.50
2010,03,28,13,14,10.50
2010,03,28,13,15,10.60
2010,03,28,13,16,10.60
2010,03,28,13,17,10.60
2010,03,28,13,18,10.70
2010,03,28,13,19,10.60
2010,03,28,13,20,10.60
2010,03,28,13,21,10.60
2010,03,28,13,22,10.50
2010,03,28,13,23,10.50
2010,03,28,13,24,10.50
2010,03,28,13,25,10.40
2010,03,28,13,26,10.40
2010,03,28,13,27,10.40
2010,03,28,13,28,10.40
2010,03,28,13,29,10.40
2010,03,28,13,30,10.30
2010,03,28,13,31,10.30
2010,03,28,13,32,10.30
2010,03,28,13,33,10.20
2010,03,28,13,34,10.20
2010,03,28,13,35,10.20
2010,03,28,13,36,10.10
2010,03,28,13,37,10.10
2010,03,28,13,38,10.00
2010,03,28,13,39,9.90
2010,03,28,13,40,9.80
2010,03,28,13,41,9.80
2010,03,28,13,42,9.70
2010,03,28,13,43,9.70
2010,03,28,13,44,9.70
2010,03,28,13,45,9.60
2010,03,28,13,46,9.60
2010,03,28,13,47,9.60
2010,03,28,13,48,9.60
2010,03,28,13,49,9.70
2010,03,28,13,50,9.70
2010,03,28,13,51,9.70
2010,03,28,13,52,9.70
2010,03,28,13,53,9.70
2010,03,28,13,54,9.70
2010,03,28,13,55,9.70
2010,03,28,13,56,9.70
2010,03,28,13,57,9.70
2010,03,28,13,58,9.60
2010,03,28,13,59,9.60
2010,03,28,14,00,9.60
2010,03,28,14,01,9.60
2010,03,28,14,02,9.60
2010,03,28,14,03,9.50
2010,03,28,14,04,9.40
2010,03,28,14,05,9.30
2010,03,28,14,06,9.30
2010,03,28,14,07,9.20
2010,03,28,14,08,9.10
2010,03,28,14,09,9.00
2010,03,28,14,10,8.90
2010,03,28,14,11,8.80
2010,03,28,14,12,8.70
2010,03,28,14,13,8.60
2010,03,28,14,14,8.50
2010,03,28,14,15,8.40
2010,03,28,14,16,8.40
2010,03,28,14,17,8.30
2010,03,28,14,18,8.20
2010,03,28,14,19,8.20
2010,03,28,14,20,8.20
2010,03,28,14,21,8.20
2010,03,28,14,22,8.20
2010,03,28,14,23,8.20
2010,03,28,14,24,8.20
2010,03,28,14,25,8.20
2010,03,28,14,26,8.20
2010,03,28,14,27,8.20
2010,03,28,14,28,8.20
2010,03,28,14,29,8.20
2010,03,28,14,30,8.10
2010,03,28,14,31,8.20
2010,03,28,14,32,8.20
2010,03,28,14,33,8.20
2010,03,28,14,34,8.20
2010,03,28,14,35,8.20
2010,03,28,14,36,8.10
2010,03,28,14,37,8.10
2010,03,28,14,38,8.10
2010,03,28,14,39,8.10
2010,03,28,14,40,8.10
2010,03,28,14,41,8.10
2010,03,28,14,42,8.10
2010,03,28,14,43,8.10
2010,03,28,14,44,8.10
2010,03,28,14,45,8.00
2010,03,28,14,46,8.00
2010,03,28,14,47,8.00
2010,03,28,14,48,8.00
2010,03,28,14,49,8.00
2010,03,28,14,50,8.00
2010,03,28,14,51,8.00
2010,03,28,14,52,8.00
2010,03,28,14,53,8.00
2010,03,28,14,54,7.90
2010,03,28,14,55,8.00
2010,03,28,14,56,8.00
2010,03,28,14,57,8.00
2010,03,28,14,58,8.10
2010,03,28,14,59,8.20
2010,03,28,15,00,8.20
2010,03,28,15,01,8.30
2010,03,28,15,02,8.30
2010,03,28,15,03,8.40
2010,03,28,15,04,8.50
2010,03,28,15,05,8.50
2010,03,28,15,06,8.60
2010,03,28,15,07,8.60
2010,03,28,15,08,8.70
2010,03,28,15,09,8.70
2010,03,28,15,10,8.70
2010,03,28,15,11,8.80
2010,03,28,15,12,8.80
2010,03,28,15,13,8.90
2010,03,28,15,14,8.90
2010,03,28,15,15,9.00
2010,03,28,15,16,9.00
2010,03,28,15,17,9.10
2010,03,28,15,18,9.10
2010,03,28,15,19,9.20
2010,03,28,15,20,9.30
2010,03,28,15,21,9.30
2010,03,28,15,22,9.40
2010,03,28,15,23,9.30
2010,03,28,15,24,9.40
2010,03,28,15,25,9.40
2010,03,28,15,26,9.50
2010,03,28,15,27,9.50
2010,03,28,15,28,9.60
2010,03,28,15,29,9.60
2010,03,28,15,30,9.60
2010,03,28,15,31,9.60
2010,03,28,15,32,9.60
2010,03,28,15,33,9.60
2010,03,28,15,34,9.60
2010,03,28,15,35,9.60
2010,03,28,15,36,9.60
2010,03,28,15,37,9.60
2010,03,28,15,38,9.50
2010,03,28,15,39,9.50
2010,03,28,15,40,9.40
2010,03,28,15,41,9.40
2010,03,28,15,42,9.40
2010,03,28,15,43,9.40
2010,03,28,15,44,9.40
2010,03,28,15,45,9.30
2010,03,28,15,46,9.30
2010,03,28,15,47,9.30
2010,03,28,15,48,9.30
2010,03,28,15,49,9.30
2010,03,28,15,50,9.30
2010,03,28,15,51,9.30
2010,03,28,15,52,9.30
2010,03,28,15,53,9.40
2010,03,28,15,54,9.40
2010,03,28,15,55,9.40
2010,03,28,15,56,9.40
2010,03,28,15,57,9.30
2010,03,28,15,58,9.30
2010,03,28,15,59,9.30
2010,03,28,16,00,9.40
2010,03,28,16,01,9.40
2010,03,28,16,02,9.50
2010,03,28,16,03,9.50
2010,03,28,16,04,9.50
2010,03,28,16,05,9.40
2010,03,28,16,06,9.40
2010,03,28,16,07,9.40
2010,03,28,16,08,9.40
2010,03,28,16,09,9.40
2010,03,28,16,10,9.40
2010,03,28,16,11,9.40
2010,03,28,16,12,9.40
2010,03,28,16,13,9.40
2010,03,28,16,14,9.40
2010,03,28,16,15,9.40
2010,03,28,16,16,9.40
2010,03,28,16,17,9.40
2010,03,28,16,18,9.40
2010,03,28,16,19,9.40
2010,03,28,16,20,9.50
2010,03,28,16,21,9.50
2010,03,28,16,22,9.50
2010,03,28,16,23,9.50
2010,03,28,16,24,9.50
2010,03,28,16,25,9.50
2010,03,28,16,26,9.50
2010,03,28,16,27,9.50
2010,03,28,16,28,9.50
2010,03,28,16,29,9.50
2010,03,28,16,30,9.50
2010,03,28,16,31,9.50
2010,03,28,16,32,9.60
2010,03,28,16,33,9.60
2010,03,28,16,34,9.60
2010,03,28,16,35,9.60
2010,03,28,16,36,9.60
2010,03,28,16,37,9.60
2010,03,28,16,38,9.70
2010,03,28,16,39,9.70
2010,03,28,16,40,9.70
2010,03,28,16,41,9.80
2010,03,28,16,42,9.80
2010,03,28,16,43,9.80
2010,03,28,16,44,9.80
2010,03,28,16,45,9.80
2010,03,28,16,46,9.80
2010,03,28,16,47,9.80
2010,03,28,16,48,9.80
2010,03,28,16,49,9.80
2010,03,28,16,50,9.80
2010,03,28,16,51,9.80
2010,03,28,16,52,9.80
2010,03,28,16,53,9.80
2010,03,28,16,54,9.80
2010,03,28,16,55,9.80
2010,03,28,16,56,9.80
2010,03,28,16,57,9.90
2010,03,28,16,58,9.90
2010,03,28,16,59,9.90
2010,03,28,17,00,9.80
2010,03,28,17,01,9.80
2010,03,28,17,02,9.80
2010,03,28,17,03,9.80
2010,03,28,17,04,9.80
2010,03,28,17,05,9.80
2010,03,28,17,06,9.80
2010,03,28,17,07,9.80
2010,03,28,17,08,9.80
2010,03,28,17,09,9.70
2010,03,28,17,10,9.70
2010,03,28,17,11,9.60
2010,03,28,17,12,9.60
2010,03,28,17,13,9.60
2010,03,28,17,14,9.60
2010,03,28,17,15,9.50
2010,03,28,17,16,9.50
2010,03,28,17,17,9.50
2010,03,28,17,18,9.40
2010,03,28,17,19,9.40
2010,03,28,17,20,9.40
2010,03,28,17,21,9.40
2010,03,28,17,22,9.30
2010,03,28,17,23,9.20
2010,03,28,17,24,9.20
2010,03,28,17,25,9.10
2010,03,28,17,26,9.00
2010,03,28,17,27,8.90
2010,03,28,17,28,8.90
2010,03,28,17,29,8.90
2010,03,28,17,30,8.90
2010,03,28,17,31,8.90
2010,03,28,17,32,8.90
2010,03,28,17,33,8.90
2010,03,28,17,34,8.80
2010,03,28,17,35,8.80
2010,03,28,17,36,8.80
2010,03,28,17,37,8.70
2010,03,28,17,38,8.70
2010,03,28,17,39,8.60
2010,03,28,17,40,8.60
2010,03,28,17,41,8.60
2010,03,28,17,42,8.60
2010,03,28,17,43,8.50
2010,03,28,17,44,8.50
2010,03,28,17,45,8.50
2010,03,28,17,46,8.50
2010,03,28,17,47,8.40
2010,03,28,17,48,8.40
2010,03,28,17,49,8.40
2010,03,28,17,50,8.40
2010,03,28,17,51,8.30
2010,03,28,17,52,8.30
2010,03,28,17,53,8.30
2010,03,28,17,54,8.20
2010,03,28,17,55,8.20
2010,03,28,17,56,8.20